{"data":{"norad_id":57447,"epoch":"2026-09-20T15:11:03.832800Z","epoch_age_seconds":116146,"freshness":"FRESH","line1":"1 57447U 23105T   26263.63268325  .00001488  00000+0  63561-4 0  9997","line2":"2 57447  42.9985 239.0980 0001259 276.7757  83.2951 15.27586825175397","mean_motion":15.27586825,"eccentricity":0.0001259,"inclination_deg":42.9985,"raan_deg":239.098,"arg_perigee_deg":276.7757,"mean_anomaly_deg":83.2951,"bstar":6.3561e-5,"rev_number":17539,"period_min":94.266327545735,"perigee_km":482.16483885392,"apogee_km":483.89248036701,"semimajor_km":6861.1656596105,"source":"CELESTRAK","updated_at":"2026-09-21T09:00:33.627788Z"}}